Litchfield, IL

9:32 AM CDT on August 30, 2016 (GMT -0500)
Litchfield

Weather History for K3LF - November, 2011

Change the Weather History Date:

Tuesday, November 8, 2011

  Actual Average (KSPI) Record (KSPI)
Temperature  
Mean Temperature 60 °F 47 °F  
Max Temperature 64 °F 57 °F 79 °F (1999)
Min Temperature 57 °F 37 °F 1 °F (1991)
Degree Days  
Heating Degree Days 4 18  
Month to date heating degree days 134  
Since 1 July heating degree days 544  
Cooling Degree Days 0 0  
Month to date cooling degree days 0  
Year to date cooling degree days 1121  
Growing Degree Days 10 (Base 50)    
Moisture  
Dew Point 55 °F    
Average Humidity 84    
Maximum Humidity 100    
Minimum Humidity 72    
Precipitation  
Precipitation 0.29 in 0.11 in 1.33 in (1880)
Month to date precipitation 0.83  
Year to date precipitation 32.53  
Snow  
Snow 0.00 in 0.00 in 1.30 in (1973)
Month to date snowfall 0.0  
Since 1 July snowfall T  
Since 1 September snowfall T  
Snow Depth -    
Sea Level Pressure  
Sea Level Pressure 29.94 in    
Wind  
Wind Speed 13 mph (SSE)    
Max Wind Speed 26 mph    
Max Gust Speed 32 mph    
Visibility 9 miles    
Events Rain    
T = Trace of Precipitation, MM = Missing Value Source: NWS Daily Summary

Daily Weather History Graph

Daily Weather History Graph

Search for Another Location

Airport or City:

Trip Planner

Search our weather history database for the weather conditions in past years. The results will help you decide how hot, cold, wet, or windy it might be!

Date:

Astronomy

Nov. 08, 2011 Rise Set
Actual Time 6:33 AM CST 4:50 PM CST
Civil Twilight 6:05 AM CST 5:18 PM CST
Nautical Twilight 5:33 AM CST 5:50 PM CST
Astronomical Twilight 5:02 AM CST 6:21 PM CST
Moon 3:30 PM CST (11/8) 4:33 AM CST (11/8)
Length of Visible Light 11h 13m
Length of Day
10h 16m
Waxing Gibbous, 96% of the Moon is Illuminated
Nov 8
Waxing Gibbous
Nov 10
Full
Nov 18
Last Quarter
Nov 25
New
Dec 2
First Quarter

Hourly Weather History & Observations

Time (CST) Temp. Dew Point Humidity Pressure Visibility Wind Dir Wind Speed Gust Speed Precip Events Conditions
12:15 AM 60.8 °F 53.6 °F 77% 30.04 in 10.0 mi SSE 13.8 mph - N/A   Clear
12:35 AM 60.8 °F 53.6 °F 77% 30.03 in 10.0 mi SSE 15.0 mph - N/A   Clear
12:55 AM 60.8 °F 53.6 °F 77% 30.03 in 10.0 mi SSE 12.7 mph - N/A   Clear
1:15 AM 59.0 °F 53.6 °F 82% 30.02 in 10.0 mi SSE 12.7 mph - N/A   Clear
1:35 AM 59.0 °F 53.6 °F 82% 30.02 in 10.0 mi South 11.5 mph - N/A   Clear
1:55 AM 59.0 °F 51.8 °F 77% 30.01 in 10.0 mi SSE 12.7 mph - N/A   Clear
2:15 AM 59.0 °F 51.8 °F 77% 30.01 in 10.0 mi South 15.0 mph - N/A   Clear
2:55 AM 60.8 °F 51.8 °F 72% 29.98 in 10.0 mi SSE 17.3 mph 21.9 mph N/A   Mostly Cloudy
3:15 AM 60.8 °F 51.8 °F 72% 29.98 in 10.0 mi SSE 16.1 mph - N/A   Overcast
3:35 AM 60.8 °F 51.8 °F 72% 29.97 in 10.0 mi SSE 16.1 mph 21.9 mph N/A   Mostly Cloudy
3:55 AM 59.0 °F 51.8 °F 77% 29.96 in 10.0 mi SE 16.1 mph 20.7 mph N/A   Scattered Clouds
4:15 AM 59.0 °F 51.8 °F 77% 29.97 in 10.0 mi SSE 13.8 mph - N/A   Mostly Cloudy
4:35 AM 59.0 °F 51.8 °F 77% 29.96 in 10.0 mi SSE 16.1 mph - N/A   Overcast
4:55 AM 59.0 °F 51.8 °F 77% 29.96 in 10.0 mi SSE 18.4 mph 21.9 mph N/A   Overcast
5:15 AM 59.0 °F 51.8 °F 77% 29.95 in 10.0 mi SSE 19.6 mph - N/A Rain Rain
5:35 AM 59.0 °F 51.8 °F 77% 29.95 in 10.0 mi SSE 16.1 mph - N/A   Mostly Cloudy
6:15 AM 57.2 °F 51.8 °F 82% 29.95 in 10.0 mi SSE 16.1 mph - N/A Rain Light Rain
6:35 AM 57.2 °F 51.8 °F 82% 29.94 in 10.0 mi SSE 15.0 mph 20.7 mph 0.01 in   Overcast
6:55 AM 57.2 °F 51.8 °F 82% 29.96 in 10.0 mi SSE 15.0 mph - 0.01 in Rain Light Rain
7:15 AM 57.2 °F 51.8 °F 82% 29.95 in 10.0 mi SSE 17.3 mph - N/A   Mostly Cloudy
7:35 AM 59.0 °F 51.8 °F 77% 29.97 in 10.0 mi SSE 18.4 mph 24.2 mph N/A   Mostly Cloudy
7:55 AM 59.0 °F 51.8 °F 77% 29.96 in 10.0 mi SSE 17.3 mph - N/A   Overcast
8:15 AM 59.0 °F 51.8 °F 77% 29.97 in 10.0 mi SSE 18.4 mph 23.0 mph N/A   Mostly Cloudy
8:35 AM 59.0 °F 51.8 °F 77% 29.96 in 10.0 mi SSE 17.3 mph 25.3 mph N/A   Scattered Clouds
8:55 AM 59.0 °F 51.8 °F 77% 29.96 in 10.0 mi South 18.4 mph 23.0 mph N/A Rain Light Rain
9:15 AM 60.8 °F 53.6 °F 77% 29.94 in 10.0 mi South 20.7 mph 28.8 mph N/A   Clear
9:35 AM 60.8 °F 53.6 °F 77% 29.93 in 10.0 mi South 24.2 mph 32.2 mph N/A   Scattered Clouds
9:55 AM 62.6 °F 53.6 °F 72% 29.93 in 10.0 mi South 25.3 mph 31.1 mph N/A   Scattered Clouds
10:15 AM 62.6 °F 55.4 °F 77% 29.93 in 10.0 mi South 26.5 mph 32.2 mph N/A   Scattered Clouds
10:35 AM 62.6 °F 55.4 °F 77% 29.93 in 10.0 mi South 21.9 mph - N/A   Mostly Cloudy
10:55 AM 64.4 °F 55.4 °F 73% 29.94 in 10.0 mi South 18.4 mph - N/A   Mostly Cloudy
11:15 AM 62.6 °F 55.4 °F 77% 29.95 in 10.0 mi SSW 16.1 mph - N/A   Overcast
11:35 AM 64.4 °F 55.4 °F 73% 29.95 in 10.0 mi SW 11.5 mph - N/A   Overcast
11:55 AM 64.4 °F 55.4 °F 73% 29.95 in 10.0 mi SW 5.8 mph - N/A Rain Light Rain
12:15 PM 64.4 °F 57.2 °F 77% 29.94 in 10.0 mi West 5.8 mph - N/A   Overcast
12:35 PM 64.4 °F 57.2 °F 77% 29.94 in 10.0 mi West 3.5 mph - N/A   Overcast
12:55 PM 64.4 °F 57.2 °F 77% 29.95 in 10.0 mi West 4.6 mph - N/A Rain Light Rain
1:35 PM 62.6 °F 59.0 °F 88% 29.95 in 7.0 mi WNW 3.5 mph - N/A Rain Rain
1:55 PM 62.6 °F 59.0 °F 88% 29.94 in 10.0 mi Calm Calm - 0.01 in Rain Light Rain
2:15 PM 60.8 °F 59.0 °F 94% 29.95 in 3.0 mi Calm Calm - 0.02 in Rain Rain
2:35 PM 60.8 °F 59.0 °F 94% 29.95 in 4.0 mi Calm Calm - 0.05 in Rain Rain
2:55 PM 60.8 °F 59.0 °F 94% 29.95 in 2.5 mi ESE 3.5 mph - 0.11 in Rain Heavy Rain
3:15 PM 60.8 °F 59.0 °F 94% 29.95 in 10.0 mi Calm Calm - N/A Rain Light Rain
3:35 PM 60.8 °F 59.0 °F 94% 29.95 in 5.0 mi SSW 6.9 mph - 0.02 in Rain Rain
3:55 PM 60.8 °F 59.0 °F 94% 29.95 in 4.0 mi South 5.8 mph - 0.04 in Rain Light Rain
4:15 PM 60.8 °F 59.0 °F 94% 29.94 in 5.0 mi SSW 3.5 mph - 0.02 in Rain Rain
4:35 PM 60.8 °F 59.0 °F 94% 29.93 in 7.0 mi West 3.5 mph - 0.03 in Rain Light Rain
4:55 PM 60.8 °F 59.0 °F 94% 29.88 in 7.0 mi ENE 5.8 mph - 0.03 in   Mostly Cloudy
5:15 PM 59.0 °F 57.2 °F 94% 29.90 in 10.0 mi Calm Calm - N/A   Scattered Clouds
5:35 PM 59.0 °F 57.2 °F 94% 29.89 in 10.0 mi SE 6.9 mph - N/A   Clear
5:55 PM 59.0 °F 57.2 °F 94% 29.91 in 10.0 mi SE 8.1 mph - N/A   Clear
6:35 PM 59.0 °F 57.2 °F 94% 29.90 in 5.0 mi SE 8.1 mph - N/A   Clear
6:55 PM 59.0 °F 57.2 °F 94% 29.91 in 7.0 mi SE 6.9 mph - N/A   Scattered Clouds
7:15 PM 59.0 °F 57.2 °F 94% 29.91 in 10.0 mi Calm Calm - N/A   Mostly Cloudy
7:35 PM 59.0 °F 55.4 °F 88% 29.90 in 7.0 mi Calm Calm - 0.01 in   Overcast
7:55 PM 59.0 °F 57.2 °F 94% 29.92 in 7.0 mi Calm Calm - 0.01 in   Overcast
8:15 PM 59.0 °F 57.2 °F 94% 29.91 in 7.0 mi South 3.5 mph - N/A   Overcast
8:35 PM 59.0 °F 59.0 °F 100% 29.91 in 10.0 mi South 12.7 mph - N/A Rain Rain
9:15 PM 60.8 °F 59.0 °F 94% 29.87 in 5.0 mi SSE 21.9 mph 26.5 mph 0.02 in Rain Light Rain
9:35 PM 60.8 °F 59.0 °F 94% 29.84 in 7.0 mi SSE 16.1 mph 25.3 mph 0.04 in Rain Light Rain
9:55 PM 60.8 °F 59.0 °F 94% 29.85 in 10.0 mi SSE 20.7 mph 26.5 mph 0.04 in   Light Drizzle
10:15 PM 60.8 °F 59.0 °F 94% 29.83 in 7.0 mi SSE 19.6 mph 28.8 mph 0.02 in Rain Light Rain
10:35 PM 60.8 °F 59.0 °F 94% 29.81 in 10.0 mi SE 16.1 mph 26.5 mph 0.04 in Rain Rain
10:55 PM 60.8 °F 59.0 °F 94% 29.81 in 10.0 mi SE 16.1 mph 21.9 mph 0.04 in   Scattered Clouds
11:15 PM 60.8 °F 57.2 °F 88% 29.79 in 10.0 mi SE 17.3 mph 23.0 mph N/A   Clear
11:35 PM 59.0 °F 57.2 °F 94% 29.79 in 10.0 mi SE 15.0 mph - N/A   Clear
11:55 PM 59.0 °F 55.4 °F 88% 29.77 in 10.0 mi SE 17.3 mph 20.7 mph N/A   Mostly Cloudy